Time,TemperatureF,DewpointF,PressureIn,WindDirection,WindDirectionDegrees,WindSpeedMPH,WindSpeedGustMPH,Humidity,HourlyPrecipIn,Conditions,Clouds,dailyrainin,SoftwareType,DateUTC
2013-04-29 00:01:00,53.2,48.8,29.94,SW,222,1.3,1.3,85,0.00,OVC,,0.00,WeatherDisplay:10.37,2013-04-29 04:01:00,
2013-04-29 00:02:00,53.2,48.8,29.94,SW,222,0.5,1.1,85,0.00,OVC,,0.00,WeatherDisplay:10.37,2013-04-29 04:02:00,
2013-04-29 00:07:00,53.4,49.0,29.95,WSW,245,1.9,2.3,85,0.00,OVC,,0.00,WeatherDisplay:10.37,2013-04-29 04:07:00,
2013-04-29 00:12:00,53.4,49.0,29.94,West,267,3.4,3.5,85,0.00,OVC,,0.00,WeatherDisplay:10.37,2013-04-29 04:12:00,
2013-04-29 00:17:00,53.4,49.0,29.94,SW,222,0.0,0.0,85,0.00,OVC,,0.00,WeatherDisplay:10.37,2013-04-29 04:17:00,
2013-04-29 00:22:00,53.4,49.0,29.94,SW,222,0.0,0.0,85,0.00,OVC,,0.00,WeatherDisplay:10.37,2013-04-29 04:22:00,
2013-04-29 00:27:00,53.4,49.0,29.94,West,267,0.3,1.1,85,0.00,OVC,,0.00,WeatherDisplay:10.37,2013-04-29 04:27:00,
2013-04-29 00:32:00,53.4,49.0,29.94,West,267,0.8,1.1,85,0.00,OVC,,0.00,WeatherDisplay:10.37,2013-04-29 04:32:00,
2013-04-29 00:37:00,53.4,49.0,29.93,WSW,245,3.8,3.8,85,0.00,OVC,,0.00,WeatherDisplay:10.37,2013-04-29 04:37:00,
2013-04-29 00:42:00,53.4,49.0,29.94,SSW,199,2.5,3.8,85,0.00,OVC,,0.00,WeatherDisplay:10.37,2013-04-29 04:42:00,
2013-04-29 00:47:00,53.4,49.0,29.94,WSW,245,2.2,2.3,85,0.00,OVC,,0.00,WeatherDisplay:10.37,2013-04-29 04:47:00,
2013-04-29 00:52:00,53.4,49.0,29.94,SW,222,2.9,3.5,85,0.00,OVC,,0.00,WeatherDisplay:10.37,2013-04-29 04:52:00,
2013-04-29 00:57:00,53.4,49.0,29.94,WSW,245,0.0,0.0,85,0.00,OVC,,0.00,WeatherDisplay:10.37,2013-04-29 04:57:00,
2013-04-29 01:02:00,53.4,49.0,29.94,WSW,245,2.3,3.5,85,0.00,OVC,,0.00,WeatherDisplay:10.37,2013-04-29 05:02:00,
2013-04-29 01:07:00,53.4,49.0,29.94,WSW,245,2.2,2.3,85,0.00,OVC,,0.00,WeatherDisplay:10.37,2013-04-29 05:07:00,
2013-04-29 01:13:00,53.4,49.0,29.94,WSW,245,0.0,0.0,85,0.00,BKN,,0.00,WeatherDisplay:10.37,2013-04-29 05:13:00,
2013-04-29 01:18:00,53.4,49.0,29.94,SW,222,3.4,3.5,85,0.00,BKN,,0.00,WeatherDisplay:10.37,2013-04-29 05:18:00,
2013-04-29 01:23:00,53.4,49.0,29.94,SW,222,0.0,0.0,85,0.00,BKN,,0.00,WeatherDisplay:10.37,2013-04-29 05:23:00,
2013-04-29 01:28:00,53.4,49.0,29.95,South,177,0.0,0.0,85,0.00,BKN,,0.00,WeatherDisplay:10.37,2013-04-29 05:28:00,
2013-04-29 01:33:00,53.4,49.0,29.95,SW,222,0.0,0.0,85,0.00,BKN,,0.00,WeatherDisplay:10.37,2013-04-29 05:33:00,
2013-04-29 01:38:00,53.4,49.0,29.94,South,177,0.0,0.0,85,0.00,BKN,,0.00,WeatherDisplay:10.37,2013-04-29 05:38:00,
2013-04-29 01:43:00,53.4,49.0,29.95,WSW,245,0.6,1.1,85,0.00,BKN,,0.00,WeatherDisplay:10.37,2013-04-29 05:43:00,
2013-04-29 01:48:00,53.4,48.7,29.95,SSE,155,0.0,0.0,84,0.00,BKN,,0.00,WeatherDisplay:10.37,2013-04-29 05:48:00,
2013-04-29 01:53:00,53.4,48.7,29.95,South,177,0.0,0.0,84,0.00,BKN,,0.00,WeatherDisplay:10.37,2013-04-29 05:53:00,
2013-04-29 01:58:00,53.4,48.7,29.95,WSW,245,0.0,0.0,84,0.00,BKN,,0.00,WeatherDisplay:10.37,2013-04-29 05:58:00,
2013-04-29 02:03:00,53.4,48.7,29.95,WSW,245,0.0,0.0,84,0.00,BKN,,0.00,WeatherDisplay:10.37,2013-04-29 06:03:00,
2013-04-29 02:08:00,53.2,48.5,29.95,West,267,0.0,0.0,84,0.00,OVC,,0.00,WeatherDisplay:10.37,2013-04-29 06:08:00,
2013-04-29 02:13:00,53.2,48.5,29.95,SW,222,2.1,2.5,84,0.00,OVC,,0.00,WeatherDisplay:10.37,2013-04-29 06:13:00,
2013-04-29 02:18:00,53.2,48.5,29.95,SW,222,0.0,2.3,84,0.00,OVC,,0.00,WeatherDisplay:10.37,2013-04-29 06:18:00,
2013-04-29 02:23:00,53.2,48.5,29.95,South,177,1.7,2.3,84,0.00,OVC,,0.00,WeatherDisplay:10.37,2013-04-29 06:23:00,
2013-04-29 02:28:00,53.2,48.5,29.95,South,177,1.6,2.3,84,0.00,OVC,,0.00,WeatherDisplay:10.37,2013-04-29 06:28:00,
2013-04-29 02:33:00,53.2,48.5,29.95,WSW,245,3.4,3.5,84,0.00,OVC,,0.00,WeatherDisplay:10.37,2013-04-29 06:33:00,
2013-04-29 02:38:00,53.2,48.5,29.95,WSW,245,2.6,3.5,84,0.00,OVC,,0.00,WeatherDisplay:10.37,2013-04-29 06:38:00,
2013-04-29 02:43:00,53.2,48.5,29.95,WSW,245,0.0,0.0,84,0.00,OVC,,0.00,WeatherDisplay:10.37,2013-04-29 06:43:00,
2013-04-29 02:48:00,53.2,48.5,29.95,SW,222,1.6,1.6,84,0.00,OVC,,0.00,WeatherDisplay:10.37,2013-04-29 06:48:00,
2013-04-29 02:53:00,53.2,48.5,29.95,West,267,0.4,3.5,84,0.00,OVC,,0.00,WeatherDisplay:10.37,2013-04-29 06:53:00,
2013-04-29 02:58:00,53.2,48.8,29.95,WSW,245,2.7,3.5,85,0.00,OVC,,0.00,WeatherDisplay:10.37,2013-04-29 06:58:00,
2013-04-29 03:03:00,53.2,48.8,29.95,SW,222,1.3,3.5,85,0.00,OVC,,0.00,WeatherDisplay:10.37,2013-04-29 07:03:00,
2013-04-29 03:08:00,53.2,48.8,29.95,SW,222,0.0,0.0,85,0.00,OVC,,0.00,WeatherDisplay:10.37,2013-04-29 07:08:00,
2013-04-29 03:13:00,53.2,48.8,29.95,WSW,245,2.2,2.3,85,0.00,OVC,,0.00,WeatherDisplay:10.37,2013-04-29 07:13:00,
2013-04-29 03:18:00,53.2,49.2,29.95,West,267,0.0,2.3,86,0.00,OVC,,0.00,WeatherDisplay:10.37,2013-04-29 07:18:00,
2013-04-29 03:23:00,53.2,49.2,29.95,West,267,0.0,0.0,86,0.00,OVC,,0.00,WeatherDisplay:10.37,2013-04-29 07:23:00,
2013-04-29 03:28:00,53.2,49.2,29.95,WSW,245,0.0,2.3,86,0.00,OVC,,0.00,WeatherDisplay:10.37,2013-04-29 07:28:00,
2013-04-29 03:33:00,53.2,49.2,29.95,West,267,0.0,2.3,86,0.00,OVC,,0.00,WeatherDisplay:10.37,2013-04-29 07:33:00,
2013-04-29 03:38:00,53.2,49.5,29.95,South,177,0.0,0.0,87,0.00,OVC,,0.00,WeatherDisplay:10.37,2013-04-29 07:38:00,
2013-04-29 03:43:00,53.2,49.5,29.95,West,267,2.7,2.7,87,0.00,OVC,,0.00,WeatherDisplay:10.37,2013-04-29 07:43:00,
2013-04-29 03:48:00,53.2,49.5,29.95,WSW,245,0.0,0.0,87,0.00,OVC,,0.00,WeatherDisplay:10.37,2013-04-29 07:48:00,
2013-04-29 03:53:00,53.4,49.6,29.95,WSW,245,0.1,2.2,87,0.00,OVC,,0.00,WeatherDisplay:10.37,2013-04-29 07:53:00,
2013-04-29 03:58:00,53.4,49.6,29.95,West,267,1.0,3.5,87,0.00,OVC,,0.00,WeatherDisplay:10.37,2013-04-29 07:58:00,
2013-04-29 04:03:00,53.4,49.6,29.95,West,267,2.0,2.3,87,0.00,OVC,,0.00,WeatherDisplay:10.37,2013-04-29 08:03:00,
2013-04-29 04:08:00,53.4,49.6,29.96,West,267,0.7,1.1,87,0.00,BKN,,0.00,WeatherDisplay:10.37,2013-04-29 08:08:00,
2013-04-29 04:13:00,53.4,49.6,29.96,WSW,245,1.0,2.3,87,0.00,BKN,,0.00,WeatherDisplay:10.37,2013-04-29 08:13:00,
2013-04-29 04:18:00,53.2,49.5,29.96,West,267,1.1,1.1,87,0.00,BKN,,0.00,WeatherDisplay:10.37,2013-04-29 08:18:00,
2013-04-29 04:23:00,53.4,49.6,29.95,South,177,0.0,0.0,87,0.00,BKN,,0.00,WeatherDisplay:10.37,2013-04-29 08:23:00,
2013-04-29 04:28:00,53.4,49.3,29.96,SW,222,0.0,0.0,86,0.00,BKN,,0.00,WeatherDisplay:10.37,2013-04-29 08:28:00,
2013-04-29 04:33:00,53.4,49.3,29.96,WSW,245,0.0,0.0,86,0.00,BKN,,0.00,WeatherDisplay:10.37,2013-04-29 08:33:00,
2013-04-29 04:38:00,53.4,49.3,29.96,SW,222,0.0,0.0,86,0.00,BKN,,0.00,WeatherDisplay:10.37,2013-04-29 08:38:00,
2013-04-29 04:43:00,53.2,49.2,29.96,SE,132,0.0,0.0,86,0.00,BKN,,0.00,WeatherDisplay:10.37,2013-04-29 08:43:00,
2013-04-29 04:48:00,53.4,49.3,29.96,SW,222,0.0,0.0,86,0.00,BKN,,0.00,WeatherDisplay:10.37,2013-04-29 08:48:00,
2013-04-29 04:53:00,53.4,49.3,29.96,SW,222,0.0,0.0,86,0.00,BKN,,0.00,WeatherDisplay:10.37,2013-04-29 08:53:00,
2013-04-29 04:58:00,53.4,49.3,29.95,SSW,199,0.0,0.0,86,0.00,BKN,,0.00,WeatherDisplay:10.37,2013-04-29 08:58:00,
2013-04-29 05:03:00,53.4,49.0,29.96,WSW,245,0.0,0.0,85,0.00,BKN,,0.00,WeatherDisplay:10.37,2013-04-29 09:03:00,
2013-04-29 05:08:00,53.4,49.0,29.95,SW,222,0.0,0.0,85,0.00,OVC,,0.00,WeatherDisplay:10.37,2013-04-29 09:08:00,
2013-04-29 05:13:00,53.2,48.8,29.95,SSE,155,0.0,0.0,85,0.00,OVC,,0.00,WeatherDisplay:10.37,2013-04-29 09:13:00,
2013-04-29 05:18:00,53.2,48.8,29.96,SSE,155,0.0,0.0,85,0.00,OVC,,0.00,WeatherDisplay:10.37,2013-04-29 09:18:00,
2013-04-29 05:23:00,53.4,49.0,29.96,South,177,0.0,0.0,85,0.00,OVC,,0.00,WeatherDisplay:10.37,2013-04-29 09:23:00,
2013-04-29 05:28:00,53.2,48.8,29.96,South,177,0.0,0.0,85,0.00,OVC,,0.00,WeatherDisplay:10.37,2013-04-29 09:28:00,
2013-04-29 05:33:00,53.2,48.8,29.96,SSE,155,0.0,0.0,85,0.00,OVC,,0.00,WeatherDisplay:10.37,2013-04-29 09:33:00,
2013-04-29 05:38:00,53.2,48.8,29.96,SW,222,0.0,0.0,85,0.00,OVC,,0.00,WeatherDisplay:10.37,2013-04-29 09:38:00,
2013-04-29 05:43:00,53.2,48.8,29.96,SW,222,0.0,0.0,85,0.00,OVC,,0.00,WeatherDisplay:10.37,2013-04-29 09:43:00,
2013-04-29 05:48:00,53.2,48.8,29.96,WSW,245,0.0,0.0,85,0.00,OVC,,0.00,WeatherDisplay:10.37,2013-04-29 09:48:00,
2013-04-29 05:53:00,53.2,48.8,29.97,SSW,199,0.0,0.0,85,0.00,OVC,,0.00,WeatherDisplay:10.37,2013-04-29 09:53:00,
2013-04-29 05:58:00,53.2,48.8,29.97,SSW,199,0.0,0.0,85,0.00,OVC,,0.00,WeatherDisplay:10.37,2013-04-29 09:58:00,
2013-04-29 06:03:00,53.2,48.8,29.97,West,267,0.0,0.0,85,0.00,OVC,,0.00,WeatherDisplay:10.37,2013-04-29 10:03:00,
2013-04-29 06:08:00,53.2,48.8,29.97,West,267,0.0,0.0,85,0.00,OVC,,0.00,WeatherDisplay:10.37,2013-04-29 10:08:00,
2013-04-29 06:13:00,53.1,48.7,29.97,West,267,0.0,0.0,85,0.00,OVC,,0.00,WeatherDisplay:10.37,2013-04-29 10:13:00,
2013-04-29 06:18:00,53.1,49.0,29.97,West,267,0.0,0.0,86,0.00,OVC,,0.00,WeatherDisplay:10.37,2013-04-29 10:18:00,
2013-04-29 06:23:00,52.9,48.8,29.97,SW,222,0.0,0.0,86,0.00,OVC,,0.00,WeatherDisplay:10.37,2013-04-29 10:23:00,
2013-04-29 06:28:00,52.9,48.8,29.98,WSW,245,0.0,0.0,86,0.00,OVC,,0.00,WeatherDisplay:10.37,2013-04-29 10:28:00,
2013-04-29 06:33:00,52.9,48.8,29.97,West,267,0.0,0.0,86,0.00,OVC,,0.00,WeatherDisplay:10.37,2013-04-29 10:33:00,
2013-04-29 06:38:00,52.9,48.8,29.97,West,267,0.0,0.0,86,0.00,OVC,,0.00,WeatherDisplay:10.37,2013-04-29 10:38:00,
2013-04-29 06:43:00,52.9,48.8,29.97,West,267,0.6,1.1,86,0.00,OVC,,0.00,WeatherDisplay:10.37,2013-04-29 10:43:00,
2013-04-29 06:48:00,52.9,48.8,29.98,West,267,0.0,0.0,86,0.00,OVC,,0.00,WeatherDisplay:10.37,2013-04-29 10:48:00,
2013-04-29 06:53:00,52.9,48.8,29.98,West,267,0.0,0.0,86,0.00,OVC,,0.00,WeatherDisplay:10.37,2013-04-29 10:53:00,
2013-04-29 06:58:00,52.9,48.8,29.98,WSW,245,0.0,0.0,86,0.00,OVC,,0.00,WeatherDisplay:10.37,2013-04-29 10:58:00,
2013-04-29 07:03:00,52.9,48.8,29.98,WSW,245,0.0,0.0,86,0.00,OVC,,0.00,WeatherDisplay:10.37,2013-04-29 11:03:00,
2013-04-29 07:08:00,52.9,48.8,29.99,WSW,245,0.0,0.0,86,0.00,OVC,,0.00,WeatherDisplay:10.37,2013-04-29 11:08:00,
2013-04-29 07:13:00,52.9,48.8,29.98,SW,222,0.0,0.0,86,0.00,OVC,,0.00,WeatherDisplay:10.37,2013-04-29 11:13:00,
2013-04-29 07:18:00,52.9,48.8,29.99,SSE,155,0.0,0.0,86,0.00,OVC,,0.00,WeatherDisplay:10.37,2013-04-29 11:18:00,
2013-04-29 07:23:00,52.9,48.8,29.99,SSW,199,0.0,1.1,86,0.00,OVC,,0.00,WeatherDisplay:10.37,2013-04-29 11:23:00,
2013-04-29 07:28:00,53.1,49.0,30.00,SW,222,0.0,0.0,86,0.00,OVC,,0.00,WeatherDisplay:10.37,2013-04-29 11:28:00,
2013-04-29 07:33:00,53.2,48.8,30.00,SW,222,1.3,1.3,85,0.00,OVC,,0.00,WeatherDisplay:10.37,2013-04-29 11:33:00,
2013-04-29 07:38:00,53.2,48.8,30.00,WSW,245,0.0,0.0,85,0.00,OVC,,0.00,WeatherDisplay:10.37,2013-04-29 11:38:00,
2013-04-29 07:43:00,53.4,49.0,30.00,SSW,199,0.0,0.0,85,0.00,OVC,,0.00,WeatherDisplay:10.37,2013-04-29 11:43:00,
2013-04-29 07:48:00,53.4,49.0,30.00,South,177,0.0,3.5,85,0.00,OVC,,0.00,WeatherDisplay:10.37,2013-04-29 11:48:00,
2013-04-29 07:53:00,53.6,49.2,30.00,SW,222,0.8,1.1,85,0.00,OVC,,0.00,WeatherDisplay:10.37,2013-04-29 11:53:00,
2013-04-29 07:58:00,53.8,49.4,30.01,SW,222,1.4,2.3,85,0.00,OVC,,0.00,WeatherDisplay:10.37,2013-04-29 11:58:00,
2013-04-29 08:03:00,53.8,49.4,30.01,WSW,245,0.0,0.0,85,0.00,OVC,,0.00,WeatherDisplay:10.37,2013-04-29 12:03:00,
2013-04-29 08:08:00,54.0,49.6,30.01,South,177,2.3,2.3,85,0.00,OVC,,0.00,WeatherDisplay:10.37,2013-04-29 12:08:00,
2013-04-29 08:13:00,54.1,49.7,30.01,SSW,199,0.0,0.0,85,0.00,OVC,,0.00,WeatherDisplay:10.37,2013-04-29 12:13:00,
2013-04-29 08:18:00,54.1,49.7,30.01,South,177,0.6,1.1,85,0.00,OVC,,0.00,WeatherDisplay:10.37,2013-04-29 12:18:00,
2013-04-29 08:23:00,54.5,50.1,30.01,SW,222,1.0,1.1,85,0.00,OVC,,0.00,WeatherDisplay:10.37,2013-04-29 12:23:00,
2013-04-29 08:28:00,54.7,50.3,30.02,South,177,0.0,0.0,85,0.00,OVC,,0.00,WeatherDisplay:10.37,2013-04-29 12:28:00,
2013-04-29 08:33:00,54.9,50.4,30.02,SW,222,0.0,0.0,85,0.00,OVC,,0.00,WeatherDisplay:10.37,2013-04-29 12:33:00,
2013-04-29 08:38:00,55.2,50.8,30.02,SW,222,0.0,0.0,85,0.00,OVC,,0.00,WeatherDisplay:10.37,2013-04-29 12:38:00,
2013-04-29 08:43:00,55.2,50.8,30.02,WNW,289,2.0,2.3,85,0.00,OVC,,0.00,WeatherDisplay:10.37,2013-04-29 12:43:00,
2013-04-29 08:48:00,55.4,51.0,30.02,SSE,155,0.0,0.0,85,0.00,OVC,,0.00,WeatherDisplay:10.37,2013-04-29 12:48:00,
2013-04-29 08:53:00,55.6,51.1,30.01,SSW,199,0.0,0.0,85,0.00,OVC,,0.00,WeatherDisplay:10.37,2013-04-29 12:53:00,
2013-04-29 08:58:00,55.9,51.5,30.01,SW,222,0.0,0.0,85,0.00,OVC,,0.00,WeatherDisplay:10.37,2013-04-29 12:58:00,
2013-04-29 09:03:00,56.1,51.7,30.01,WSW,245,0.0,0.0,85,0.00,OVC,,0.00,WeatherDisplay:10.37,2013-04-29 13:03:00,
2013-04-29 09:08:00,56.5,52.0,30.01,SW,222,0.1,1.1,85,0.00,OVC,,0.00,WeatherDisplay:10.37,2013-04-29 13:08:00,
2013-04-29 09:13:00,56.8,52.4,30.01,West,267,0.0,0.0,85,0.00,OVC,,0.00,WeatherDisplay:10.37,2013-04-29 13:13:00,
2013-04-29 09:18:00,56.8,52.1,30.01,West,267,2.5,2.5,84,0.00,OVC,,0.00,WeatherDisplay:10.37,2013-04-29 13:18:00,
2013-04-29 09:23:00,57.4,52.3,30.01,SSW,199,0.0,0.0,83,0.00,OVC,,0.00,WeatherDisplay:10.37,2013-04-29 13:23:00,
2013-04-29 09:28:00,57.7,52.6,30.01,SSE,155,0.0,0.0,83,0.00,OVC,,0.00,WeatherDisplay:10.37,2013-04-29 13:28:00,
2013-04-29 09:33:00,58.1,53.0,30.01,West,267,0.0,2.3,83,0.00,OVC,,0.00,WeatherDisplay:10.37,2013-04-29 13:33:00,
2013-04-29 09:38:00,58.6,53.2,30.01,SSE,155,1.1,2.5,82,0.00,OVC,,0.00,WeatherDisplay:10.37,2013-04-29 13:38:00,
2013-04-29 09:43:00,58.6,53.2,30.01,WSW,245,3.3,3.5,82,0.00,OVC,,0.00,WeatherDisplay:10.37,2013-04-29 13:43:00,
2013-04-29 09:48:00,58.8,53.3,30.01,SW,222,3.8,3.8,82,0.00,OVC,,0.00,WeatherDisplay:10.37,2013-04-29 13:48:00,
2013-04-29 09:53:00,59.9,54.1,30.02,SW,222,0.7,1.1,81,0.00,OVC,,0.00,WeatherDisplay:10.37,2013-04-29 13:53:00,
2013-04-29 09:58:00,60.4,54.2,30.02,SW,222,0.0,0.0,80,0.00,OVC,,0.00,WeatherDisplay:10.37,2013-04-29 13:58:00,
2013-04-29 10:03:00,60.6,54.4,30.02,WSW,245,0.0,1.1,80,0.00,OVC,,0.00,WeatherDisplay:10.37,2013-04-29 14:03:00,
2013-04-29 10:08:00,61.2,54.9,30.01,SW,222,2.5,3.8,80,0.00,OVC,,0.00,WeatherDisplay:10.37,2013-04-29 14:08:00,
2013-04-29 10:13:00,61.5,54.6,30.01,WSW,245,2.0,3.5,78,0.00,OVC,,0.00,WeatherDisplay:10.37,2013-04-29 14:13:00,
2013-04-29 10:18:00,61.7,54.8,30.02,SSE,155,0.0,0.0,78,0.00,OVC,,0.00,WeatherDisplay:10.37,2013-04-29 14:18:00,
2013-04-29 10:23:00,62.4,55.5,30.02,SSW,199,2.0,3.5,78,0.00,OVC,,0.00,WeatherDisplay:10.37,2013-04-29 14:23:00,
2013-04-29 10:28:00,63.0,55.6,30.02,WNW,289,0.2,3.5,77,0.00,OVC,,0.00,WeatherDisplay:10.37,2013-04-29 14:28:00,
2013-04-29 10:33:00,63.3,55.6,30.02,South,177,2.2,2.3,76,0.00,OVC,,0.00,WeatherDisplay:10.37,2013-04-29 14:33:00,
2013-04-29 10:38:00,63.7,55.6,30.02,SE,132,1.8,3.5,75,0.00,OVC,,0.00,WeatherDisplay:10.37,2013-04-29 14:38:00,
2013-04-29 10:43:00,63.9,55.8,30.03,SSE,155,2.0,3.5,75,0.00,OVC,,0.00,WeatherDisplay:10.37,2013-04-29 14:43:00,
2013-04-29 10:48:00,64.2,55.8,30.03,SSE,155,1.6,3.5,74,0.00,OVC,,0.00,WeatherDisplay:10.37,2013-04-29 14:48:00,
2013-04-29 10:53:00,64.6,55.7,30.02,South,177,1.3,2.3,73,0.00,OVC,,0.00,WeatherDisplay:10.37,2013-04-29 14:53:00,
2013-04-29 10:58:00,64.9,56.1,30.03,SSW,199,4.0,4.0,73,0.00,OVC,,0.00,WeatherDisplay:10.37,2013-04-29 14:58:00,
2013-04-29 11:03:00,64.9,56.1,30.03,SSW,199,1.8,2.3,73,0.00,OVC,,0.00,WeatherDisplay:10.37,2013-04-29 15:03:00,
2013-04-29 11:08:00,65.3,56.0,30.03,SSW,199,5.9,6.9,72,0.00,OVC,,0.00,WeatherDisplay:10.37,2013-04-29 15:08:00,
2013-04-29 11:13:00,65.7,56.0,30.03,SSW,199,4.4,4.6,71,0.00,OVC,,0.00,WeatherDisplay:10.37,2013-04-29 15:13:00,
2013-04-29 11:18:00,65.8,56.2,30.03,South,177,2.2,2.3,71,0.00,OVC,,0.00,WeatherDisplay:10.37,2013-04-29 15:18:00,
2013-04-29 11:23:00,66.0,56.0,30.03,SSW,199,4.1,4.6,70,0.00,OVC,,0.00,WeatherDisplay:10.37,2013-04-29 15:23:00,
2013-04-29 11:28:00,66.2,56.1,30.03,SW,222,2.5,2.5,70,0.00,OVC,,0.00,WeatherDisplay:10.37,2013-04-29 15:28:00,
2013-04-29 11:33:00,66.4,56.3,30.03,South,177,3.4,3.5,70,0.00,OVC,,0.00,WeatherDisplay:10.37,2013-04-29 15:33:00,
2013-04-29 11:38:00,66.9,56.0,30.03,SW,222,4.4,6.3,68,0.00,OVC,,0.00,WeatherDisplay:10.37,2013-04-29 15:38:00,
2013-04-29 11:43:00,66.9,56.0,30.03,South,177,2.5,2.5,68,0.00,OVC,,0.00,WeatherDisplay:10.37,2013-04-29 15:43:00,
2013-04-29 11:48:00,67.3,56.4,30.03,WSW,245,5.4,5.8,68,0.00,OVC,,0.00,WeatherDisplay:10.37,2013-04-29 15:48:00,
2013-04-29 11:53:00,67.5,56.5,30.03,WSW,245,1.8,2.5,68,0.00,OVC,,0.00,WeatherDisplay:10.37,2013-04-29 15:53:00,
2013-04-29 11:58:00,67.8,56.5,30.03,SSE,155,2.2,3.5,67,0.00,OVC,,0.00,WeatherDisplay:10.37,2013-04-29 15:58:00,
2013-04-29 12:03:00,67.8,56.5,30.03,West,267,0.0,0.0,67,0.00,OVC,,0.00,WeatherDisplay:10.37,2013-04-29 16:03:00,
2013-04-29 12:08:00,68.2,56.4,30.03,West,267,2.8,3.5,66,0.00,OVC,,0.00,WeatherDisplay:10.37,2013-04-29 16:08:00,
2013-04-29 12:13:00,68.0,55.8,30.03,West,267,2.4,2.5,65,0.00,OVC,,0.00,WeatherDisplay:10.37,2013-04-29 16:13:00,
2013-04-29 12:18:00,67.6,55.5,30.03,SSW,199,1.1,1.1,65,0.00,OVC,,0.00,WeatherDisplay:10.37,2013-04-29 16:18:00,
2013-04-29 12:23:00,67.6,55.5,30.03,West,267,2.3,3.5,65,0.00,OVC,,0.00,WeatherDisplay:10.37,2013-04-29 16:23:00,
2013-04-29 12:28:00,67.6,55.5,30.03,NW,312,0.0,0.0,65,0.00,OVC,,0.00,WeatherDisplay:10.37,2013-04-29 16:28:00,
2013-04-29 12:33:00,67.3,55.1,30.02,WSW,245,2.9,3.5,65,0.00,OVC,,0.00,WeatherDisplay:10.37,2013-04-29 16:33:00,
2013-04-29 12:38:00,67.8,55.6,30.02,SSE,155,4.3,5.1,65,0.00,OVC,,0.00,WeatherDisplay:10.37,2013-04-29 16:38:00,
2013-04-29 12:43:00,68.4,56.1,30.02,SW,222,1.3,1.3,65,0.00,OVC,,0.00,WeatherDisplay:10.37,2013-04-29 16:43:00,
2013-04-29 12:48:00,69.1,56.8,30.02,West,267,0.0,0.0,65,0.00,OVC,,0.00,WeatherDisplay:10.37,2013-04-29 16:48:00,
2013-04-29 12:53:00,69.1,55.5,30.02,West,267,1.6,3.5,62,0.00,OVC,,0.00,WeatherDisplay:10.37,2013-04-29 16:53:00,
2013-04-29 12:58:00,68.4,54.4,30.02,WSW,245,0.0,0.0,61,0.00,OVC,,0.00,WeatherDisplay:10.37,2013-04-29 16:58:00,
2013-04-29 13:03:00,68.0,54.9,30.02,West,267,0.0,0.0,63,0.00,OVC,,0.00,WeatherDisplay:10.37,2013-04-29 17:03:00,
2013-04-29 13:08:00,68.4,54.8,30.02,WNW,289,1.6,2.3,62,0.00,OVC,,0.00,WeatherDisplay:10.37,2013-04-29 17:08:00,
2013-04-29 13:13:00,68.5,54.6,30.01,West,267,2.5,2.5,61,0.00,OVC,,0.00,WeatherDisplay:10.37,2013-04-29 17:13:00,
2013-04-29 13:18:00,68.5,54.6,30.01,South,177,2.5,2.5,61,0.00,OVC,,0.00,WeatherDisplay:10.37,2013-04-29 17:18:00,
2013-04-29 13:23:00,69.3,55.7,30.01,SSE,155,2.7,4.6,62,0.00,OVC,,0.00,WeatherDisplay:10.37,2013-04-29 17:23:00,
2013-04-29 13:28:00,70.0,55.9,30.01,West,267,1.8,2.3,61,0.00,OVC,,0.00,WeatherDisplay:10.37,2013-04-29 17:28:00,
2013-04-29 13:33:00,70.2,55.6,30.01,SW,222,0.3,3.1,60,0.00,OVC,,0.00,WeatherDisplay:10.37,2013-04-29 17:33:00,
2013-04-29 13:38:00,70.5,56.0,30.01,SW,222,0.2,2.3,60,0.00,OVC,,0.00,WeatherDisplay:10.37,2013-04-29 17:38:00,
2013-04-29 13:43:00,70.9,55.8,30.01,ESE,109,2.9,3.5,59,0.00,OVC,,0.00,WeatherDisplay:10.37,2013-04-29 17:43:00,
2013-04-29 13:48:00,71.2,55.7,30.00,SSW,199,2.5,4.2,58,0.00,OVC,,0.00,WeatherDisplay:10.37,2013-04-29 17:48:00,
2013-04-29 13:53:00,71.2,55.2,30.01,SW,222,5.9,6.0,57,0.00,OVC,,0.00,WeatherDisplay:10.37,2013-04-29 17:53:00,
2013-04-29 13:58:00,71.2,55.7,30.00,SSE,155,3.1,3.5,58,0.00,OVC,,0.00,WeatherDisplay:10.37,2013-04-29 17:58:00,
2013-04-29 14:03:00,71.6,56.0,30.00,SSW,199,4.2,4.7,58,0.00,OVC,,0.00,WeatherDisplay:10.37,2013-04-29 18:03:00,
2013-04-29 14:08:00,72.0,56.4,30.00,SSE,155,4.0,5.1,58,0.00,OVC,,0.00,WeatherDisplay:10.37,2013-04-29 18:08:00,
2013-04-29 14:13:00,72.5,56.4,30.00,SW,222,2.5,2.5,57,0.00,OVC,,0.00,WeatherDisplay:10.37,2013-04-29 18:13:00,
2013-04-29 14:18:00,72.5,54.9,30.00,SSE,155,0.5,1.1,54,0.00,OVC,,0.00,WeatherDisplay:10.37,2013-04-29 18:18:00,
2013-04-29 14:23:00,72.5,54.4,30.00,SSE,155,7.6,8.1,53,0.00,OVC,,0.00,WeatherDisplay:10.37,2013-04-29 18:23:00,
2013-04-29 14:28:00,72.7,55.1,30.00,SSE,155,3.4,3.5,54,0.00,OVC,,0.00,WeatherDisplay:10.37,2013-04-29 18:28:00,
2013-04-29 14:33:00,72.5,55.4,30.00,WSW,245,7.1,8.3,55,0.00,OVC,,0.00,WeatherDisplay:10.37,2013-04-29 18:33:00,
2013-04-29 14:38:00,72.3,54.2,30.00,South,177,2.2,3.5,53,0.00,OVC,,0.00,WeatherDisplay:10.37,2013-04-29 18:38:00,
2013-04-29 14:43:00,72.1,54.6,30.00,WSW,245,5.1,5.1,54,0.00,OVC,,0.00,WeatherDisplay:10.37,2013-04-29 18:43:00,
2013-04-29 14:48:00,71.8,54.7,30.00,SSE,155,2.6,4.5,55,0.00,OVC,,0.00,WeatherDisplay:10.37,2013-04-29 18:48:00,
2013-04-29 14:53:00,72.1,55.1,30.00,SW,222,4.5,5.1,55,0.00,OVC,,0.00,WeatherDisplay:10.37,2013-04-29 18:53:00,
2013-04-29 14:58:00,72.3,55.2,30.00,South,177,5.8,5.8,55,0.00,OVC,,0.00,WeatherDisplay:10.37,2013-04-29 18:58:00,
2013-04-29 15:03:00,73.0,55.4,30.00,SSW,199,4.1,4.6,54,0.00,OVC,,0.00,WeatherDisplay:10.37,2013-04-29 19:03:00,
2013-04-29 15:08:00,73.2,55.1,30.00,SSW,199,5.0,5.1,53,0.00,OVC,,0.00,WeatherDisplay:10.37,2013-04-29 19:08:00,
2013-04-29 15:13:00,73.4,55.2,30.00,SW,222,5.1,5.1,53,0.00,OVC,,0.00,WeatherDisplay:10.37,2013-04-29 19:13:00,
2013-04-29 15:18:00,73.4,55.2,30.00,West,267,2.6,4.6,53,0.00,OVC,,0.00,WeatherDisplay:10.37,2013-04-29 19:18:00,
2013-04-29 15:23:00,73.2,55.1,30.00,SSW,199,2.5,2.5,53,0.00,OVC,,0.00,WeatherDisplay:10.37,2013-04-29 19:23:00,
2013-04-29 15:28:00,73.4,55.7,29.99,SSE,155,2.9,3.5,54,0.00,OVC,,0.00,WeatherDisplay:10.37,2013-04-29 19:28:00,
2013-04-29 15:33:00,74.1,55.9,29.99,SSW,199,2.5,7.4,53,0.00,OVC,,0.00,WeatherDisplay:10.37,2013-04-29 19:33:00,
2013-04-29 15:38:00,74.5,56.2,29.99,West,267,3.1,3.5,53,0.00,OVC,,0.00,WeatherDisplay:10.37,2013-04-29 19:38:00,
2013-04-29 15:43:00,74.5,55.2,29.99,SE,132,3.4,3.5,51,0.00,OVC,,0.00,WeatherDisplay:10.37,2013-04-29 19:43:00,
2013-04-29 15:48:00,74.8,56.6,29.99,SSW,199,4.6,6.0,53,0.00,OVC,,0.00,WeatherDisplay:10.37,2013-04-29 19:48:00,
2013-04-29 15:53:00,75.0,56.2,29.98,SSW,199,1.3,6.9,52,0.00,OVC,,0.00,WeatherDisplay:10.37,2013-04-29 19:53:00,
2013-04-29 15:58:00,75.2,56.4,29.98,WNW,289,4.0,4.0,52,0.00,OVC,,0.00,WeatherDisplay:10.37,2013-04-29 19:58:00,
2013-04-29 16:03:00,75.0,56.2,29.98,SW,222,2.8,3.5,52,0.00,OVC,,0.00,WeatherDisplay:10.37,2013-04-29 20:03:00,
2013-04-29 16:08:00,75.0,55.7,29.98,WSW,245,11.5,12.7,51,0.00,-RA,,0.00,WeatherDisplay:10.37,2013-04-29 20:08:00,
2013-04-29 16:13:00,74.8,55.5,29.98,SSE,155,4.9,4.9,51,0.00,-RA,,0.00,WeatherDisplay:10.37,2013-04-29 20:13:00,
2013-04-29 16:18:00,75.0,55.7,29.98,SSE,155,1.6,1.6,51,0.00,-RA,,0.00,WeatherDisplay:10.37,2013-04-29 20:18:00,
2013-04-29 16:23:00,75.0,55.7,29.98,ESE,109,3.7,3.7,51,0.00,-RA,,0.00,WeatherDisplay:10.37,2013-04-29 20:23:00,
2013-04-29 16:28:00,75.0,54.6,29.98,South,177,0.0,0.0,49,0.00,-RA,,0.00,WeatherDisplay:10.37,2013-04-29 20:28:00,
2013-04-29 16:33:00,75.0,55.1,29.98,South,177,2.7,3.5,50,0.00,-RA,,0.00,WeatherDisplay:10.37,2013-04-29 20:33:00,
2013-04-29 16:38:00,75.0,54.6,29.98,SSE,155,2.2,2.3,49,0.00,-RA,,0.00,WeatherDisplay:10.37,2013-04-29 20:38:00,
2013-04-29 16:43:00,74.1,53.7,29.97,SE,132,1.6,3.5,49,0.00,-RA,,0.00,WeatherDisplay:10.37,2013-04-29 20:43:00,
2013-04-29 16:48:00,73.9,54.7,29.97,SSW,199,2.9,3.5,51,0.00,-RA,,0.00,WeatherDisplay:10.37,2013-04-29 20:48:00,
2013-04-29 16:53:00,73.9,54.7,29.97,West,267,1.4,1.4,51,0.00,-RA,,0.00,WeatherDisplay:10.37,2013-04-29 20:53:00,
2013-04-29 16:58:00,73.8,54.5,29.97,SW,222,7.8,8.1,51,0.00,-RA,,0.00,WeatherDisplay:10.37,2013-04-29 20:58:00,
2013-04-29 17:03:00,73.6,54.9,29.97,SE,132,0.9,1.1,52,0.00,-RA,,0.00,WeatherDisplay:10.37,2013-04-29 21:03:00,
2013-04-29 17:08:00,73.6,54.9,29.97,ESE,109,0.0,2.3,52,0.00,OVC,,0.00,WeatherDisplay:10.37,2013-04-29 21:08:00,
2013-04-29 17:13:00,73.6,54.9,29.97,SSE,155,2.1,3.5,52,0.00,OVC,,0.00,WeatherDisplay:10.37,2013-04-29 21:13:00,
2013-04-29 17:18:00,73.6,55.4,29.97,SSE,155,0.0,0.0,53,0.00,OVC,,0.00,WeatherDisplay:10.37,2013-04-29 21:18:00,
2013-04-29 17:23:00,72.5,54.4,29.96,SE,132,3.4,4.6,53,0.00,OVC,,0.00,WeatherDisplay:10.37,2013-04-29 21:23:00,
2013-04-29 17:28:00,72.1,54.1,29.96,SSE,155,2.2,2.3,53,0.00,OVC,,0.00,WeatherDisplay:10.37,2013-04-29 21:28:00,
2013-04-29 17:33:00,72.0,53.9,29.96,West,267,2.5,2.5,53,0.00,OVC,,0.00,WeatherDisplay:10.37,2013-04-29 21:33:00,
2013-04-29 17:38:00,72.0,54.4,29.96,West,267,1.6,1.6,54,0.00,OVC,,0.00,WeatherDisplay:10.37,2013-04-29 21:38:00,
2013-04-29 17:43:00,72.0,53.9,29.96,WSW,245,0.7,1.1,53,0.00,OVC,,0.00,WeatherDisplay:10.37,2013-04-29 21:43:00,
2013-04-29 17:48:00,72.1,54.6,29.96,WSW,245,1.3,1.3,54,0.00,OVC,,0.00,WeatherDisplay:10.37,2013-04-29 21:48:00,
2013-04-29 17:53:00,72.5,54.4,29.95,South,177,3.8,4.6,53,0.00,OVC,,0.00,WeatherDisplay:10.37,2013-04-29 21:53:00,
2013-04-29 17:58:00,73.0,54.9,29.96,SE,132,3.8,3.8,53,0.00,OVC,,0.00,WeatherDisplay:10.37,2013-04-29 21:58:00,
2013-04-29 18:03:00,73.0,54.4,29.95,SSE,155,0.0,0.0,52,0.00,OVC,,0.00,WeatherDisplay:10.37,2013-04-29 22:03:00,
2013-04-29 18:08:00,73.0,54.4,29.96,SW,222,0.0,0.0,52,0.00,OVC,,0.00,WeatherDisplay:10.37,2013-04-29 22:08:00,
2013-04-29 18:13:00,72.9,54.2,29.95,ESE,109,1.4,2.5,52,0.00,OVC,,0.00,WeatherDisplay:10.37,2013-04-29 22:13:00,
2013-04-29 18:18:00,72.7,54.0,29.95,SW,222,3.0,3.5,52,0.00,OVC,,0.00,WeatherDisplay:10.37,2013-04-29 22:18:00,
2013-04-29 18:23:00,72.5,53.9,29.95,East,87,1.8,2.3,52,0.00,OVC,,0.00,WeatherDisplay:10.37,2013-04-29 22:23:00,
2013-04-29 18:28:00,72.5,53.9,29.95,South,177,2.0,2.3,52,0.00,OVC,,0.00,WeatherDisplay:10.37,2013-04-29 22:28:00,
2013-04-29 18:33:00,72.7,54.0,29.95,WSW,245,0.9,1.1,52,0.00,OVC,,0.00,WeatherDisplay:10.37,2013-04-29 22:33:00,
2013-04-29 18:38:00,72.5,53.3,29.95,ESE,109,2.8,3.5,51,0.00,OVC,,0.00,WeatherDisplay:10.37,2013-04-29 22:38:00,
2013-04-29 18:43:00,72.1,53.0,29.95,South,177,0.0,5.4,51,0.00,OVC,,0.00,WeatherDisplay:10.37,2013-04-29 22:43:00,
2013-04-29 18:48:00,72.1,53.5,29.95,SSE,155,0.7,1.1,52,0.00,OVC,,0.00,WeatherDisplay:10.37,2013-04-29 22:48:00,
2013-04-29 18:53:00,72.1,53.5,29.95,SE,132,1.3,1.3,52,0.00,OVC,,0.00,WeatherDisplay:10.37,2013-04-29 22:53:00,
2013-04-29 18:58:00,71.4,52.3,29.95,SSE,155,2.7,2.7,51,0.00,OVC,,0.00,WeatherDisplay:10.37,2013-04-29 22:58:00,
2013-04-29 19:03:00,71.2,52.7,29.95,South,177,1.3,1.3,52,0.00,OVC,,0.00,WeatherDisplay:10.37,2013-04-29 23:03:00,
2013-04-29 19:08:00,71.2,52.7,29.95,SE,132,3.4,4.6,52,0.00,SCT,,0.00,WeatherDisplay:10.37,2013-04-29 23:08:00,
2013-04-29 19:13:00,70.5,52.6,29.95,SSW,199,3.8,3.8,53,0.00,SCT,,0.00,WeatherDisplay:10.37,2013-04-29 23:13:00,
2013-04-29 19:18:00,70.2,52.2,29.94,SE,132,0.7,2.3,53,0.00,SCT,,0.00,WeatherDisplay:10.37,2013-04-29 23:18:00,
2013-04-29 19:23:00,69.4,52.1,29.94,NNW,335,1.3,1.3,54,0.00,SCT,,0.00,WeatherDisplay:10.37,2013-04-29 23:23:00,
2013-04-29 19:28:00,69.1,51.7,29.95,South,177,4.0,4.0,54,0.00,SCT,,0.00,WeatherDisplay:10.37,2013-04-29 23:28:00,
2013-04-29 19:33:00,68.7,51.9,29.95,SE,132,0.0,2.3,55,0.00,SCT,,0.00,WeatherDisplay:10.37,2013-04-29 23:33:00,
2013-04-29 19:38:00,68.4,51.6,29.94,South,177,0.0,0.0,55,0.00,SCT,,0.00,WeatherDisplay:10.37,2013-04-29 23:38:00,
2013-04-29 19:43:00,67.8,51.5,29.94,SSW,199,1.0,1.1,56,0.00,SCT,,0.00,WeatherDisplay:10.37,2013-04-29 23:43:00,
2013-04-29 19:48:00,67.6,51.4,29.94,South,177,0.5,1.1,56,0.00,SCT,,0.00,WeatherDisplay:10.37,2013-04-29 23:48:00,
2013-04-29 19:53:00,67.1,50.9,29.94,South,177,0.0,0.0,56,0.00,SCT,,0.00,WeatherDisplay:10.37,2013-04-29 23:53:00,
2013-04-29 19:58:00,66.7,51.0,29.94,SSE,155,0.0,0.0,57,0.00,SCT,,0.00,WeatherDisplay:10.37,2013-04-29 23:58:00,
2013-04-29 20:03:00,66.4,50.7,29.94,WSW,245,0.0,0.0,57,0.00,SCT,,0.00,WeatherDisplay:10.37,2013-04-30 00:03:00,
2013-04-29 20:08:00,65.8,50.6,29.94,SW,222,0.0,0.0,58,0.00,CLR,,0.00,WeatherDisplay:10.37,2013-04-30 00:08:00,
2013-04-29 20:13:00,64.9,50.3,29.94,SW,222,0.0,0.0,59,0.00,CLR,,0.00,WeatherDisplay:10.37,2013-04-30 00:13:00,
2013-04-29 20:18:00,64.4,50.2,29.94,SSE,155,0.0,0.0,60,0.00,CLR,,0.00,WeatherDisplay:10.37,2013-04-30 00:18:00,
2013-04-29 20:23:00,63.7,49.5,29.94,SSE,155,0.0,0.0,60,0.00,CLR,,0.00,WeatherDisplay:10.37,2013-04-30 00:23:00,
2013-04-29 20:28:00,62.8,49.1,29.94,ENE,65,0.0,0.0,61,0.00,CLR,,0.00,WeatherDisplay:10.37,2013-04-30 00:28:00,
2013-04-29 20:33:00,62.2,49.5,29.95,ENE,65,0.0,0.0,63,0.00,CLR,,0.00,WeatherDisplay:10.37,2013-04-30 00:33:00,
2013-04-29 20:38:00,61.9,49.1,29.95,SE,132,0.0,0.0,63,0.00,CLR,,0.00,WeatherDisplay:10.37,2013-04-30 00:38:00,
2013-04-29 20:43:00,61.2,48.9,29.94,ENE,65,0.0,0.0,64,0.00,CLR,,0.00,WeatherDisplay:10.37,2013-04-30 00:43:00,
2013-04-29 20:48:00,60.8,49.0,29.94,ENE,65,0.0,0.0,65,0.00,CLR,,0.00,WeatherDisplay:10.37,2013-04-30 00:48:00,
2013-04-29 20:53:00,60.4,49.0,29.94,East,87,0.0,0.0,66,0.00,CLR,,0.00,WeatherDisplay:10.37,2013-04-30 00:53:00,
2013-04-29 20:58:00,59.9,48.5,29.95,ENE,65,0.0,0.0,66,0.00,CLR,,0.00,WeatherDisplay:10.37,2013-04-30 00:58:00,
2013-04-29 21:03:00,59.5,48.6,29.94,ENE,65,0.0,0.0,67,0.00,CLR,,0.00,WeatherDisplay:10.37,2013-04-30 01:03:00,
2013-04-29 21:08:00,59.0,48.1,29.95,NE,42,0.0,0.0,67,0.00,CLR,,0.00,WeatherDisplay:10.37,2013-04-30 01:08:00,
2013-04-29 21:13:00,58.8,48.3,29.95,ENE,65,0.0,0.0,68,0.00,CLR,,0.00,WeatherDisplay:10.37,2013-04-30 01:13:00,
2013-04-29 21:18:00,58.8,48.7,29.95,East,87,0.0,0.0,69,0.00,CLR,,0.00,WeatherDisplay:10.37,2013-04-30 01:18:00,
2013-04-29 21:23:00,58.6,48.5,29.95,East,87,0.0,0.0,69,0.00,CLR,,0.00,WeatherDisplay:10.37,2013-04-30 01:23:00,
2013-04-29 21:28:00,58.3,48.2,29.95,ENE,65,0.0,0.0,69,0.00,CLR,,0.00,WeatherDisplay:10.37,2013-04-30 01:28:00,
2013-04-29 21:33:00,57.9,48.2,29.96,NE,42,0.0,0.0,70,0.00,CLR,,0.00,WeatherDisplay:10.37,2013-04-30 01:33:00,
2013-04-29 21:38:00,57.9,48.2,29.96,East,87,0.0,0.0,70,0.00,CLR,,0.00,WeatherDisplay:10.37,2013-04-30 01:38:00,
2013-04-29 21:43:00,57.7,48.0,29.96,South,177,0.0,0.0,70,0.00,CLR,,0.00,WeatherDisplay:10.37,2013-04-30 01:43:00,
2013-04-29 21:48:00,57.7,48.4,29.96,East,87,0.0,0.0,71,0.00,CLR,,0.00,WeatherDisplay:10.37,2013-04-30 01:48:00,
2013-04-29 21:53:00,57.6,48.2,29.96,ENE,65,0.0,0.0,71,0.00,CLR,,0.00,WeatherDisplay:10.37,2013-04-30 01:53:00,
2013-04-29 21:58:00,57.4,48.1,29.96,East,87,0.0,0.0,71,0.00,CLR,,0.00,WeatherDisplay:10.37,2013-04-30 01:58:00,
2013-04-29 22:03:00,57.4,48.4,29.97,East,87,0.0,0.0,72,0.00,CLR,,0.00,WeatherDisplay:10.37,2013-04-30 02:03:00,
2013-04-29 22:08:00,57.0,48.1,29.97,ENE,65,0.0,0.0,72,0.00,CLR,,0.00,WeatherDisplay:10.37,2013-04-30 02:08:00,
2013-04-29 22:13:00,57.0,48.4,29.97,ESE,109,0.0,0.0,73,0.00,CLR,,0.00,WeatherDisplay:10.37,2013-04-30 02:13:00,
2013-04-29 22:18:00,56.8,48.3,29.96,East,87,0.0,0.0,73,0.00,CLR,,0.00,WeatherDisplay:10.37,2013-04-30 02:18:00,
2013-04-29 22:23:00,56.8,48.3,29.96,ENE,65,0.0,0.0,73,0.00,CLR,,0.00,WeatherDisplay:10.37,2013-04-30 02:23:00,
2013-04-29 22:28:00,56.5,48.3,29.96,East,87,0.0,0.0,74,0.00,CLR,,0.00,WeatherDisplay:10.37,2013-04-30 02:28:00,
2013-04-29 22:33:00,56.5,48.3,29.96,ENE,65,0.0,0.0,74,0.00,CLR,,0.00,WeatherDisplay:10.37,2013-04-30 02:33:00,
2013-04-29 22:38:00,56.1,48.3,29.95,ENE,65,0.0,0.0,75,0.00,CLR,,0.00,WeatherDisplay:10.37,2013-04-30 02:38:00,
2013-04-29 22:43:00,55.9,48.1,29.97,ENE,65,0.0,0.0,75,0.00,CLR,,0.00,WeatherDisplay:10.37,2013-04-30 02:43:00,
2013-04-29 22:48:00,55.6,47.8,29.96,NE,42,0.0,0.0,75,0.00,CLR,,0.00,WeatherDisplay:10.37,2013-04-30 02:48:00,
2013-04-29 22:53:00,55.2,47.8,29.97,ENE,65,0.0,0.0,76,0.00,CLR,,0.00,WeatherDisplay:10.37,2013-04-30 02:53:00,
2013-04-29 22:58:00,55.2,48.1,29.96,East,87,0.0,0.0,77,0.00,CLR,,0.00,WeatherDisplay:10.37,2013-04-30 02:58:00,
2013-04-29 23:03:00,55.2,48.1,29.96,NE,42,0.0,0.0,77,0.00,CLR,,0.00,WeatherDisplay:10.37,2013-04-30 03:03:00,
2013-04-29 23:08:00,55.0,48.0,29.96,ESE,109,0.0,0.0,77,0.00,CLR,,0.00,WeatherDisplay:10.37,2013-04-30 03:08:00,
2013-04-29 23:13:00,54.9,47.8,29.96,SSE,155,0.0,0.0,77,0.00,CLR,,0.00,WeatherDisplay:10.37,2013-04-30 03:13:00,
2013-04-29 23:18:00,54.5,47.8,29.96,East,87,0.0,0.0,78,0.00,CLR,,0.00,WeatherDisplay:10.37,2013-04-30 03:18:00,
2013-04-29 23:23:00,54.3,47.6,29.96,NE,42,0.0,0.0,78,0.00,CLR,,0.00,WeatherDisplay:10.37,2013-04-30 03:23:00,
2013-04-29 23:28:00,54.1,47.4,29.95,East,87,0.0,0.0,78,0.00,CLR,,0.00,WeatherDisplay:10.37,2013-04-30 03:28:00,
2013-04-29 23:33:00,54.0,47.6,29.95,SE,132,0.0,0.0,79,0.00,CLR,,0.00,WeatherDisplay:10.37,2013-04-30 03:33:00,
2013-04-29 23:38:00,53.8,47.4,29.96,ENE,65,0.0,0.0,79,0.00,CLR,,0.00,WeatherDisplay:10.37,2013-04-30 03:38:00,
2013-04-29 23:43:00,53.6,47.2,29.95,NNE,19,0.0,0.0,79,0.00,CLR,,0.00,WeatherDisplay:10.37,2013-04-30 03:43:00,
2013-04-29 23:48:00,53.4,47.4,29.95,NE,42,0.0,0.0,80,0.00,CLR,,0.00,WeatherDisplay:10.37,2013-04-30 03:48:00,
2013-04-29 23:53:00,53.4,47.4,29.95,North,357,0.0,0.0,80,0.00,CLR,,0.00,WeatherDisplay:10.37,2013-04-30 03:53:00,
2013-04-29 23:58:00,53.2,47.2,29.95,SW,222,0.0,0.0,80,0.00,CLR,,0.00,WeatherDisplay:10.37,2013-04-30 03:58:00,